Leesburg, FL

5:41 AM EST on December 10, 2019 (GMT -0500)
Leesburg Regional

Weather History for KLEE - October, 2019

Change the Weather History Date:

Saturday, October 19, 2019

  Actual Average Record
Temperature  
Mean Temperature 80 °F -  
Max Temperature 87 °F 82 °F 93 °F (1990)
Min Temperature 73 °F 62 °F 48 °F (1967)
Cooling Degree Days 14    
Growing Degree Days 30 (Base 50)    
Moisture  
Dew Point 72 °F    
Average Humidity 84    
Maximum Humidity 94    
Minimum Humidity 65    
Precipitation  
Precipitation 0.00 in - - ()
Sea Level Pressure  
Sea Level Pressure 29.83 in    
Wind  
Wind Speed 10 mph (SE)    
Max Wind Speed 16 mph    
Max Gust Speed 25 mph    
Visibility 7 miles    
Events Rain    
Averages and records for this station are not official NWS values.
T = Trace of Precipitation, MM = Missing Value Source: NWS Daily Summary

Daily Weather History Graph

Daily Weather History Graph

Search for Another Location

Airport or City:

Astronomy

Oct. 19, 2019 Rise Set
Actual Time 7:30 AM EDT 6:53 PM EDT
Civil Twilight 7:06 AM EDT 7:17 PM EDT
Nautical Twilight 6:39 AM EDT 7:44 PM EDT
Astronomical Twilight 6:11 AM EDT 8:12 PM EDT
Moon 11:20 PM EDT (10/19) 12:42 PM EDT (10/19)
Length of Visible Light 12h 10m
Length of Day
11h 22m
Waning Gibbous, 70% of the Moon is Illuminated
Oct 19
Waning Gibbous
Oct 21
Last Quarter
Oct 27
New
Nov 4
First Quarter
Nov 12
Full

Hourly Weather History & Observations

Time (EDT) Temp. Heat Index Dew Point Humidity Pressure Visibility Wind Dir Wind Speed Gust Speed Precip Events Conditions
12:20 AM 75.0 °F - 71.1 °F 87% 29.88 in 3.0 mi East 9.2 mph - N/A Rain Rain
12:53 AM 75.0 °F - 71.1 °F 87% 29.88 in 3.0 mi NE 10.4 mph - N/A Rain Heavy Rain
12:57 AM 75.0 °F - 71.1 °F 87% 29.87 in 1.8 mi ENE 10.4 mph - N/A Rain Heavy Rain
1:09 AM 75.0 °F - 71.1 °F 87% 29.88 in 3.0 mi East 6.9 mph - N/A Rain Rain
1:41 AM 75.0 °F - 71.1 °F 87% 29.87 in 10.0 mi ENE 5.8 mph - N/A Rain Light Rain
1:53 AM 75.0 °F - 71.1 °F 87% 29.87 in 10.0 mi East 8.1 mph - N/A Rain Light Rain
2:17 AM 73.9 °F - 71.1 °F 91% 29.87 in 10.0 mi ENE 8.1 mph - N/A Rain Light Rain
2:50 AM 73.4 °F - 71.6 °F 94% 29.86 in 6.0 mi NE 9.2 mph - N/A Rain Rain
2:53 AM 73.9 °F - 71.1 °F 91% 29.86 in 5.0 mi NE 6.9 mph - N/A Rain Rain
3:53 AM 75.0 °F - 73.0 °F 94% 29.83 in 5.0 mi East 10.4 mph - N/A Rain Rain
4:18 AM 75.9 °F - 73.0 °F 91% 29.82 in 8.0 mi East 11.5 mph - N/A Rain Light Rain
4:33 AM 75.9 °F - 73.0 °F 91% 29.81 in 10.0 mi ESE 10.4 mph - N/A   Scattered Clouds
4:53 AM 77.0 °F - 73.0 °F 88% 29.83 in 10.0 mi ESE 11.5 mph - N/A Rain Light Rain
5:28 AM 75.9 °F - 73.0 °F 91% 29.84 in 8.0 mi East 4.6 mph - N/A Rain Light Rain
5:53 AM 75.9 °F - 73.0 °F 91% 29.84 in 7.0 mi East 8.1 mph - N/A Rain Rain
6:53 AM 75.9 °F - 73.0 °F 91% 29.84 in 3.0 mi East 5.8 mph - N/A Rain Heavy Rain
7:53 AM 75.0 °F - 71.1 °F 87% 29.85 in 5.0 mi SE 8.1 mph - N/A Rain Rain
8:20 AM 75.0 °F - 72.0 °F 90% 29.84 in 1.8 mi SE 10.4 mph - N/A Rain Heavy Rain
8:33 AM 75.0 °F - 72.0 °F 90% 29.85 in 3.0 mi ESE 15.0 mph 20.7 mph N/A Rain Light Rain
8:48 AM 75.2 °F - 71.6 °F 89% 29.86 in 5.0 mi SSE 13.8 mph 23.0 mph N/A Rain Rain
8:53 AM 75.0 °F - 72.0 °F 90% 29.86 in 2.0 mi SE 12.7 mph - N/A Rain Heavy Rain
9:00 AM 75.0 °F - 72.0 °F 90% 29.86 in 2.0 mi SSE 12.7 mph - N/A Rain Rain
9:08 AM 75.0 °F - 72.0 °F 90% 29.86 in 2.0 mi SE 13.8 mph - N/A Rain Heavy Rain
9:24 AM 75.0 °F - 72.0 °F 90% 29.85 in 4.0 mi SE 13.8 mph 24.2 mph N/A Rain Light Rain
9:42 AM 75.0 °F - 71.1 °F 87% 29.87 in 10.0 mi SSE 16.1 mph 25.3 mph N/A Rain Light Rain
9:53 AM 75.9 °F - 72.0 °F 87% 29.87 in 10.0 mi SSE 10.4 mph 23.0 mph N/A   Overcast
10:53 AM 77.0 °F - 72.0 °F 84% 29.85 in 10.0 mi SE 10.4 mph - N/A Rain Light Rain
11:53 AM 79.0 °F - 73.0 °F 82% 29.84 in 10.0 mi SE 15.0 mph 21.9 mph N/A   Scattered Clouds
12:00 PM 79.0 °F - 72.0 °F 79% 29.84 in 10.0 mi SE 15.0 mph 24.2 mph N/A   Mostly Cloudy
12:53 PM 80.1 °F 83.8 °F 72.0 °F 76% 29.81 in 10.0 mi SSE 16.1 mph 20.7 mph N/A   Mostly Cloudy
1:27 PM 82.0 °F 86.7 °F 72.0 °F 71% 29.80 in 10.0 mi South 16.1 mph - N/A   Overcast
1:53 PM 82.9 °F 87.5 °F 71.1 °F 67% 29.78 in 10.0 mi South 15.0 mph 24.2 mph N/A   Overcast
2:53 PM 82.9 °F 87.5 °F 71.1 °F 67% 29.76 in 10.0 mi South 16.1 mph 23.0 mph N/A   Mostly Cloudy
3:53 PM 80.1 °F 84.2 °F 73.0 °F 79% 29.74 in 10.0 mi WSW 3.5 mph - N/A   Overcast
4:53 PM 86.0 °F 93.0 °F 73.0 °F 65% 29.73 in 10.0 mi SSW 12.7 mph - N/A   Mostly Cloudy
5:53 PM 84.9 °F 91.4 °F 73.0 °F 67% 29.74 in 10.0 mi South 16.1 mph - N/A   Partly Cloudy
6:53 PM 82.9 °F 88.8 °F 73.0 °F 72% 29.75 in 10.0 mi South 16.1 mph 21.9 mph N/A   Clear
7:53 PM 82.0 °F 87.4 °F 73.0 °F 74% 29.76 in 10.0 mi South 12.7 mph 21.9 mph N/A   Partly Cloudy
8:53 PM 81.0 °F 85.8 °F 73.0 °F 77% 29.79 in 10.0 mi South 15.0 mph - N/A   Overcast
9:28 PM 79.0 °F - 73.9 °F 84% 29.80 in 10.0 mi SSW 8.1 mph - N/A   Mostly Cloudy
9:53 PM 79.0 °F - 73.9 °F 84% 29.81 in 10.0 mi SSW 8.1 mph - N/A   Mostly Cloudy
10:53 PM 79.0 °F - 75.0 °F 88% 29.83 in 10.0 mi SSW 10.4 mph - N/A   Overcast
11:53 PM 78.1 °F - 73.9 °F 87% 29.83 in 10.0 mi SSW 6.9 mph - N/A   Mostly Cloudy